Time,TemperatureF,DewpointF,PressureIn,WindDirection,WindDirectionDegrees,WindSpeedMPH,WindSpeedGustMPH,Humidity,HourlyPrecipIn,Conditions,Clouds,dailyrainin,SolarRadiationWatts/m^2,SoftwareType,DateUTC
2013-07-15 00:02:00,68.8,63.8,30.20,ENE,77,0.0,0.0,84,0.00,,CLR,0.00,0.00,VWS V14.01,2013-07-15 05:02:00,
2013-07-15 00:07:00,68.4,63.4,30.20,ENE,77,0.0,0.0,84,0.00,,CLR,0.00,0.00,VWS V14.01,2013-07-15 05:07:00,
2013-07-15 00:12:00,68.0,63.7,30.20,ENE,77,0.0,0.0,86,0.00,,CLR,0.00,0.00,VWS V14.01,2013-07-15 05:12:00,
2013-07-15 00:17:00,68.0,63.7,30.20,ENE,77,0.0,0.0,86,0.00,,CLR,0.00,0.00,VWS V14.01,2013-07-15 05:17:00,
2013-07-15 00:22:00,68.2,63.9,30.20,ENE,77,0.0,0.0,86,0.00,,CLR,0.00,0.00,VWS V14.01,2013-07-15 05:22:00,
2013-07-15 00:27:00,68.5,64.2,30.20,ENE,77,0.0,0.0,86,0.00,,CLR,0.00,0.00,VWS V14.01,2013-07-15 05:27:00,
2013-07-15 00:32:00,68.6,64.2,30.20,ENE,77,0.0,0.0,86,0.00,,CLR,0.00,0.00,VWS V14.01,2013-07-15 05:32:00,
2013-07-15 00:37:00,69.2,64.2,30.20,East,90,0.0,0.0,84,0.00,,CLR,0.00,0.00,VWS V14.01,2013-07-15 05:37:00,
2013-07-15 00:42:00,69.7,64.0,30.20,SE,131,0.0,0.0,82,0.00,,CLR,0.00,0.00,VWS V14.01,2013-07-15 05:42:00,
2013-07-15 00:47:00,69.6,63.9,30.20,SE,131,0.0,0.0,82,0.00,,CLR,0.00,0.00,VWS V14.01,2013-07-15 05:47:00,
2013-07-15 00:52:00,69.8,63.7,30.20,SE,131,0.0,0.0,81,0.00,,CLR,0.00,0.00,VWS V14.01,2013-07-15 05:52:00,
2013-07-15 00:57:00,69.9,63.8,30.20,SE,131,0.0,0.0,81,0.00,,CLR,0.00,0.00,VWS V14.01,2013-07-15 05:57:00,
2013-07-15 01:02:00,69.8,63.7,30.21,SE,131,0.0,0.0,81,0.00,,CLR,0.00,0.00,VWS V14.01,2013-07-15 06:02:00,
2013-07-15 01:07:00,69.4,63.3,30.20,SE,131,0.0,0.0,81,0.00,,CLR,0.00,0.00,VWS V14.01,2013-07-15 06:07:00,
2013-07-15 01:12:00,69.3,63.6,30.21,SE,131,0.0,0.0,82,0.00,,CLR,0.00,0.00,VWS V14.01,2013-07-15 06:12:00,
2013-07-15 01:17:00,69.3,63.6,30.21,SE,131,0.0,0.0,82,0.00,,CLR,0.00,0.00,VWS V14.01,2013-07-15 06:17:00,
2013-07-15 01:22:00,69.4,63.7,30.21,SE,131,0.0,0.0,82,0.00,,CLR,0.00,0.00,VWS V14.01,2013-07-15 06:22:00,
2013-07-15 01:27:00,68.9,63.5,30.21,SE,131,0.0,0.0,83,0.00,,CLR,0.00,0.00,VWS V14.01,2013-07-15 06:27:00,
2013-07-15 01:32:00,68.6,63.2,30.21,SE,131,0.0,0.0,83,0.00,,CLR,0.00,0.00,VWS V14.01,2013-07-15 06:32:00,
2013-07-15 01:37:00,68.4,63.4,30.21,SE,131,0.0,0.0,84,0.00,,CLR,0.00,0.00,VWS V14.01,2013-07-15 06:37:00,
2013-07-15 01:42:00,68.3,63.3,30.21,SE,131,0.0,0.0,84,0.00,,CLR,0.00,0.00,VWS V14.01,2013-07-15 06:42:00,
2013-07-15 01:47:00,68.1,63.4,30.21,SE,131,0.0,0.0,85,0.00,,CLR,0.00,0.00,VWS V14.01,2013-07-15 06:47:00,
2013-07-15 01:52:00,68.0,63.3,30.21,SE,131,0.0,0.0,85,0.00,,CLR,0.00,0.00,VWS V14.01,2013-07-15 06:52:00,
2013-07-15 01:57:00,68.0,63.3,30.21,SE,131,0.0,0.0,85,0.00,,CLR,0.00,0.00,VWS V14.01,2013-07-15 06:57:00,
2013-07-15 02:02:00,67.9,63.2,30.21,SE,131,0.0,0.0,85,0.00,,CLR,0.00,0.00,VWS V14.01,2013-07-15 07:02:00,
2013-07-15 02:07:00,67.9,63.2,30.21,SE,131,0.0,0.0,85,0.00,,CLR,0.00,0.00,VWS V14.01,2013-07-15 07:07:00,
2013-07-15 02:13:00,67.8,63.5,30.21,SE,131,0.0,0.0,86,0.00,,CLR,0.00,0.00,VWS V14.01,2013-07-15 07:13:00,
2013-07-15 02:18:00,67.8,63.5,30.21,SE,131,0.0,0.0,86,0.00,,CLR,0.00,0.00,VWS V14.01,2013-07-15 07:18:00,
2013-07-15 02:23:00,67.6,63.3,30.21,SE,131,0.0,0.0,86,0.00,,CLR,0.00,0.00,VWS V14.01,2013-07-15 07:23:00,
2013-07-15 02:28:00,67.5,63.2,30.20,SE,131,0.0,0.0,86,0.00,,CLR,0.00,0.00,VWS V14.01,2013-07-15 07:28:00,
2013-07-15 02:33:00,67.3,63.3,30.20,SE,131,0.0,0.0,87,0.00,,CLR,0.00,0.00,VWS V14.01,2013-07-15 07:33:00,
2013-07-15 02:38:00,67.3,63.3,30.21,SE,131,0.0,0.0,87,0.00,,CLR,0.00,0.00,VWS V14.01,2013-07-15 07:38:00,
2013-07-15 02:43:00,67.2,63.2,30.21,SE,131,0.0,0.0,87,0.00,,CLR,0.00,0.00,VWS V14.01,2013-07-15 07:43:00,
2013-07-15 02:48:00,67.2,63.2,30.21,SE,131,0.0,0.0,87,0.00,,CLR,0.00,0.00,VWS V14.01,2013-07-15 07:48:00,
2013-07-15 02:53:00,67.2,63.2,30.21,NE,47,0.0,0.0,87,0.00,,CLR,0.00,0.00,VWS V14.01,2013-07-15 07:53:00,
2013-07-15 02:58:00,67.2,63.2,30.21,NE,47,0.0,0.0,87,0.00,,CLR,0.00,0.00,VWS V14.01,2013-07-15 07:58:00,
2013-07-15 03:03:00,66.8,62.8,30.21,NE,47,0.0,0.0,87,0.00,,CLR,0.00,0.00,VWS V14.01,2013-07-15 08:03:00,
2013-07-15 03:08:00,66.8,63.1,30.21,NE,47,0.0,0.0,88,0.00,,CLR,0.00,0.00,VWS V14.01,2013-07-15 08:08:00,
2013-07-15 03:13:00,66.9,63.2,30.21,NE,47,0.0,0.0,88,0.00,,CLR,0.00,0.00,VWS V14.01,2013-07-15 08:13:00,
2013-07-15 03:18:00,66.9,63.2,30.21,NE,47,0.0,0.0,88,0.00,,CLR,0.00,0.00,VWS V14.01,2013-07-15 08:18:00,
2013-07-15 03:23:00,67.0,63.3,30.21,NE,47,0.0,0.0,88,0.00,,CLR,0.00,0.00,VWS V14.01,2013-07-15 08:23:00,
2013-07-15 03:28:00,67.1,63.1,30.21,NE,47,0.0,0.0,87,0.00,,CLR,0.00,0.00,VWS V14.01,2013-07-15 08:28:00,
2013-07-15 03:33:00,66.9,62.9,30.21,NE,47,0.0,0.0,87,0.00,,CLR,0.00,0.00,VWS V14.01,2013-07-15 08:33:00,
2013-07-15 03:38:00,66.8,63.1,30.21,NE,47,0.0,0.0,88,0.00,,CLR,0.00,0.00,VWS V14.01,2013-07-15 08:38:00,
2013-07-15 03:43:00,66.5,62.8,30.21,NE,47,0.0,0.0,88,0.00,,CLR,0.00,0.00,VWS V14.01,2013-07-15 08:43:00,
2013-07-15 03:48:00,66.5,62.8,30.21,NE,47,0.0,0.0,88,0.00,,CLR,0.00,0.00,VWS V14.01,2013-07-15 08:48:00,
2013-07-15 03:53:00,66.7,63.4,30.21,NE,47,0.0,0.0,89,0.00,,CLR,0.00,0.00,VWS V14.01,2013-07-15 08:53:00,
2013-07-15 03:58:00,66.9,63.2,30.21,NE,47,0.0,0.0,88,0.00,,CLR,0.00,0.00,VWS V14.01,2013-07-15 08:58:00,
2013-07-15 04:03:00,67.1,63.4,30.21,NE,47,0.0,0.0,88,0.00,,CLR,0.00,0.00,VWS V14.01,2013-07-15 09:03:00,
2013-07-15 04:08:00,67.3,63.3,30.21,NE,47,0.0,0.0,87,0.00,,CLR,0.00,0.00,VWS V14.01,2013-07-15 09:08:00,
2013-07-15 04:13:00,67.5,63.5,30.21,NE,47,0.0,0.0,87,0.00,,CLR,0.00,0.00,VWS V14.01,2013-07-15 09:13:00,
2013-07-15 04:18:00,67.6,63.3,30.21,NE,47,0.0,0.0,86,0.00,,CLR,0.00,0.00,VWS V14.01,2013-07-15 09:18:00,
2013-07-15 04:23:00,67.5,63.2,30.21,NE,47,0.0,0.0,86,0.00,,CLR,0.00,0.00,VWS V14.01,2013-07-15 09:23:00,
2013-07-15 04:28:00,67.4,63.1,30.21,NE,47,0.0,0.0,86,0.00,,CLR,0.00,0.00,VWS V14.01,2013-07-15 09:28:00,
2013-07-15 04:33:00,67.2,63.2,30.21,NE,47,0.0,0.0,87,0.00,,CLR,0.00,0.00,VWS V14.01,2013-07-15 09:33:00,
2013-07-15 04:38:00,67.1,63.1,30.22,NE,47,0.0,0.0,87,0.00,,CLR,0.00,0.00,VWS V14.01,2013-07-15 09:38:00,
2013-07-15 04:43:00,66.9,62.9,30.22,NE,47,0.0,0.0,87,0.00,,CLR,0.00,0.00,VWS V14.01,2013-07-15 09:43:00,
2013-07-15 04:48:00,66.9,62.9,30.22,NE,47,1.0,2.0,87,0.00,,CLR,0.00,0.00,VWS V14.01,2013-07-15 09:48:00,
2013-07-15 04:53:00,67.0,63.0,30.22,NE,47,0.0,2.0,87,0.00,,CLR,0.00,0.00,VWS V14.01,2013-07-15 09:53:00,
2013-07-15 04:58:00,67.0,63.0,30.22,NE,47,2.0,2.0,87,0.00,,CLR,0.00,0.00,VWS V14.01,2013-07-15 09:58:00,
2013-07-15 05:03:00,67.0,63.0,30.22,NE,47,0.0,3.0,87,0.00,,CLR,0.00,0.00,VWS V14.01,2013-07-15 10:03:00,
2013-07-15 05:08:00,66.6,62.6,30.22,NE,47,2.0,2.0,87,0.00,,CLR,0.00,0.00,VWS V14.01,2013-07-15 10:08:00,
2013-07-15 05:13:00,66.6,62.9,30.22,ENE,60,0.0,2.0,88,0.00,,CLR,0.00,0.00,VWS V14.01,2013-07-15 10:13:00,
2013-07-15 05:18:00,66.7,63.0,30.22,ENE,60,3.0,3.0,88,0.00,,CLR,0.00,0.00,VWS V14.01,2013-07-15 10:18:00,
2013-07-15 05:23:00,66.6,62.9,30.22,ENE,60,1.0,2.0,88,0.00,,CLR,0.00,0.00,VWS V14.01,2013-07-15 10:23:00,
2013-07-15 05:28:00,66.5,62.8,30.22,ENE,58,0.0,2.0,88,0.00,,CLR,0.00,0.00,VWS V14.01,2013-07-15 10:28:00,
2013-07-15 05:33:00,66.4,62.7,30.22,ENE,58,0.0,2.0,88,0.00,,CLR,0.00,0.00,VWS V14.01,2013-07-15 10:33:00,
2013-07-15 05:38:00,66.5,62.8,30.22,ENE,58,1.0,2.0,88,0.00,,CLR,0.00,0.00,VWS V14.01,2013-07-15 10:38:00,
2013-07-15 05:43:00,66.3,62.6,30.22,ENE,58,0.0,1.0,88,0.00,,CLR,0.00,0.00,VWS V14.01,2013-07-15 10:43:00,
2013-07-15 05:48:00,66.1,62.8,30.22,ENE,58,0.0,1.0,89,0.00,,CLR,0.00,0.00,VWS V14.01,2013-07-15 10:48:00,
2013-07-15 05:53:00,66.0,62.7,30.22,ENE,58,0.0,1.0,89,0.00,,CLR,0.00,0.00,VWS V14.01,2013-07-15 10:53:00,
2013-07-15 05:58:00,65.7,62.4,30.23,ENE,58,0.0,0.0,89,0.00,,CLR,0.00,5.00,VWS V14.01,2013-07-15 10:58:00,
2013-07-15 06:03:00,65.6,62.6,30.23,East,82,0.0,0.0,90,0.00,,CLR,0.00,5.00,VWS V14.01,2013-07-15 11:03:00,
2013-07-15 06:08:00,65.7,62.7,30.23,East,82,0.0,0.0,90,0.00,,CLR,0.00,7.00,VWS V14.01,2013-07-15 11:08:00,
2013-07-15 06:13:00,65.9,62.9,30.23,East,82,0.0,1.0,90,0.00,,CLR,0.00,9.00,VWS V14.01,2013-07-15 11:13:00,
2013-07-15 06:18:00,66.2,63.2,30.23,East,82,0.0,0.0,90,0.00,,CLR,0.00,11.00,VWS V14.01,2013-07-15 11:18:00,
2013-07-15 06:23:00,66.3,63.3,30.23,East,82,0.0,1.0,90,0.00,,CLR,0.00,12.00,VWS V14.01,2013-07-15 11:23:00,
2013-07-15 06:28:00,66.6,63.6,30.23,East,82,0.0,0.0,90,0.00,,CLR,0.00,11.00,VWS V14.01,2013-07-15 11:28:00,
2013-07-15 06:33:00,66.8,63.8,30.23,East,82,0.0,0.0,90,0.00,,CLR,0.00,9.00,VWS V14.01,2013-07-15 11:33:00,
2013-07-15 06:38:00,66.7,63.7,30.23,East,82,0.0,0.0,90,0.00,,CLR,0.00,11.00,VWS V14.01,2013-07-15 11:38:00,
2013-07-15 06:43:00,66.8,63.8,30.24,East,82,0.0,1.0,90,0.00,,CLR,0.00,11.00,VWS V14.01,2013-07-15 11:43:00,
2013-07-15 06:48:00,67.0,64.3,30.24,East,82,1.0,3.0,91,0.00,,CLR,0.00,11.00,VWS V14.01,2013-07-15 11:48:00,
2013-07-15 06:53:00,67.4,64.4,30.23,East,82,0.0,1.0,90,0.00,,-RA,0.00,16.00,VWS V14.01,2013-07-15 11:53:00,
2013-07-15 06:58:00,67.9,64.5,30.23,East,82,1.0,2.0,89,0.00,,-RA,0.00,37.00,VWS V14.01,2013-07-15 11:58:00,
2013-07-15 07:03:00,68.3,64.9,30.24,East,82,0.0,2.0,89,0.00,,-RA,0.00,49.00,VWS V14.01,2013-07-15 12:03:00,
2013-07-15 07:08:00,68.6,64.9,30.24,East,82,0.0,1.0,88,0.00,,-RA,0.00,49.00,VWS V14.01,2013-07-15 12:08:00,
2013-07-15 07:14:00,68.8,65.1,30.24,East,82,0.0,0.0,88,0.00,,-RA,0.00,49.00,VWS V14.01,2013-07-15 12:14:00,
2013-07-15 07:18:00,69.0,65.3,30.24,East,82,1.0,1.0,88,0.00,,-RA,0.00,51.00,VWS V14.01,2013-07-15 12:18:00,
2013-07-15 07:24:00,69.3,65.6,30.24,East,82,0.0,1.0,88,0.00,,-RA,0.00,47.00,VWS V14.01,2013-07-15 12:24:00,
2013-07-15 07:29:00,69.4,65.4,30.24,East,82,0.0,0.0,87,0.00,,-RA,0.00,49.00,VWS V14.01,2013-07-15 12:29:00,
2013-07-15 07:34:00,69.7,66.0,30.24,East,82,0.0,0.0,88,0.00,,-RA,0.00,218.00,VWS V14.01,2013-07-15 12:34:00,
2013-07-15 07:39:00,70.2,66.2,30.25,East,82,1.0,1.0,87,0.00,,-RA,0.00,130.00,VWS V14.01,2013-07-15 12:39:00,
2013-07-15 07:44:00,70.5,66.4,30.25,East,82,0.0,1.0,87,0.00,,-RA,0.00,281.00,VWS V14.01,2013-07-15 12:44:00,
2013-07-15 07:49:00,70.8,66.4,30.24,East,82,1.0,2.0,86,0.00,,-RA,0.00,104.00,VWS V14.01,2013-07-15 12:49:00,
2013-07-15 07:54:00,71.2,66.8,30.24,East,82,0.0,1.0,86,0.00,,SCT075,0.00,118.00,VWS V14.01,2013-07-15 12:54:00,
2013-07-15 07:59:00,71.6,66.9,30.24,East,82,0.0,2.0,85,0.00,,SCT075,0.00,137.00,VWS V14.01,2013-07-15 12:59:00,
2013-07-15 08:04:00,72.1,67.3,30.25,East,82,2.0,2.0,85,0.00,,SCT075,0.00,151.00,VWS V14.01,2013-07-15 13:04:00,
2013-07-15 08:09:00,72.2,67.1,30.25,East,100,1.0,4.0,84,0.00,,SCT075,0.00,86.00,VWS V14.01,2013-07-15 13:09:00,
2013-07-15 08:14:00,72.1,67.0,30.25,ESE,103,2.0,2.0,84,0.00,,SCT075,0.00,72.00,VWS V14.01,2013-07-15 13:14:00,
2013-07-15 08:19:00,72.1,67.3,30.25,ESE,103,0.0,1.0,85,0.00,,SCT075,0.00,81.00,VWS V14.01,2013-07-15 13:19:00,
2013-07-15 08:24:00,72.1,67.3,30.25,ESE,103,0.0,1.0,85,0.00,,SCT075,0.00,76.00,VWS V14.01,2013-07-15 13:24:00,
2013-07-15 08:29:00,72.2,67.4,30.25,ESE,103,1.0,2.0,85,0.00,,SCT075,0.00,84.00,VWS V14.01,2013-07-15 13:29:00,
2013-07-15 08:34:00,72.4,68.0,30.25,ESE,103,0.0,0.0,86,0.00,,SCT075,0.00,63.00,VWS V14.01,2013-07-15 13:34:00,
2013-07-15 08:39:00,72.4,68.0,30.25,ESE,103,0.0,1.0,86,0.00,,SCT075,0.00,62.00,VWS V14.01,2013-07-15 13:39:00,
2013-07-15 08:44:00,72.4,68.0,30.25,ESE,103,0.0,1.0,86,0.00,,SCT075,0.00,69.00,VWS V14.01,2013-07-15 13:44:00,
2013-07-15 08:49:00,72.6,68.5,30.26,SSE,164,4.0,5.0,87,0.00,,SCT075,0.00,70.00,VWS V14.01,2013-07-15 13:49:00,
2013-07-15 08:54:00,72.5,68.4,30.26,South,174,6.0,6.0,87,0.00,,SCT070,0.00,65.00,VWS V14.01,2013-07-15 13:54:00,
2013-07-15 08:59:00,72.6,68.5,30.26,SSE,155,3.0,3.0,87,0.00,,SCT070,0.00,83.00,VWS V14.01,2013-07-15 13:59:00,
2013-07-15 09:04:00,72.7,68.6,30.26,East,86,1.0,4.0,87,0.00,,SCT070,0.00,114.00,VWS V14.01,2013-07-15 14:04:00,
2013-07-15 09:09:00,73.0,68.6,30.26,SE,131,1.0,3.0,86,0.00,,SCT070,0.00,128.00,VWS V14.01,2013-07-15 14:09:00,
2013-07-15 09:14:00,73.1,69.0,30.26,ESE,104,0.0,3.0,87,0.00,,SCT070,0.00,137.00,VWS V14.01,2013-07-15 14:14:00,
2013-07-15 09:19:00,73.3,69.2,30.26,ESE,103,0.0,2.0,87,0.00,,SCT070,0.00,171.00,VWS V14.01,2013-07-15 14:19:00,
2013-07-15 09:24:00,73.7,69.3,30.26,SE,146,1.0,3.0,86,0.00,,SCT070,0.00,155.00,VWS V14.01,2013-07-15 14:24:00,
2013-07-15 09:29:00,73.8,69.3,30.26,SE,146,2.0,2.0,86,0.00,,SCT070,0.00,86.00,VWS V14.01,2013-07-15 14:29:00,
2013-07-15 09:34:00,73.8,69.3,30.26,SSE,149,2.0,3.0,86,0.00,,SCT070,0.00,97.00,VWS V14.01,2013-07-15 14:34:00,
2013-07-15 09:39:00,73.8,69.3,30.26,SE,140,2.0,4.0,86,0.00,,SCT070,0.00,146.00,VWS V14.01,2013-07-15 14:39:00,
2013-07-15 09:44:00,74.0,69.6,30.26,SSE,150,0.0,2.0,86,0.00,,SCT070,0.00,142.00,VWS V14.01,2013-07-15 14:44:00,
2013-07-15 09:49:00,74.2,69.8,30.26,ENE,67,4.0,4.0,86,0.00,,SCT070,0.00,135.00,VWS V14.01,2013-07-15 14:49:00,
2013-07-15 09:54:00,74.3,69.5,30.26,ESE,115,2.0,4.0,85,0.00,,SCT065,0.00,174.00,VWS V14.01,2013-07-15 14:54:00,
2013-07-15 09:59:00,74.5,70.0,30.26,ESE,112,2.0,2.0,86,0.00,,SCT065,0.00,255.00,VWS V14.01,2013-07-15 14:59:00,
2013-07-15 10:04:00,74.9,70.4,30.26,East,85,3.0,3.0,86,0.00,,SCT065,0.00,297.00,VWS V14.01,2013-07-15 15:04:00,
2013-07-15 10:09:00,75.3,70.5,30.26,East,93,2.0,3.0,85,0.00,,SCT065,0.00,311.00,VWS V14.01,2013-07-15 15:09:00,
2013-07-15 10:14:00,75.8,70.6,30.26,SSE,148,1.0,5.0,84,0.00,,SCT065,0.00,350.00,VWS V14.01,2013-07-15 15:14:00,
2013-07-15 10:19:00,75.8,70.6,30.26,SE,125,2.0,3.0,84,0.00,,SCT065,0.00,264.00,VWS V14.01,2013-07-15 15:19:00,
2013-07-15 10:25:00,76.0,70.8,30.25,SE,139,0.0,3.0,84,0.00,,SCT065,0.00,243.00,VWS V14.01,2013-07-15 15:25:00,
2013-07-15 10:30:00,76.2,71.0,30.26,SE,139,0.0,1.0,84,0.00,,SCT065,0.00,218.00,VWS V14.01,2013-07-15 15:30:00,
2013-07-15 10:35:00,76.5,71.0,30.26,SE,139,1.0,3.0,83,0.00,,SCT065,0.00,327.00,VWS V14.01,2013-07-15 15:35:00,
2013-07-15 10:40:00,78.1,72.9,30.26,ESE,108,2.0,3.0,84,0.00,,SCT065,0.00,990.00,VWS V14.01,2013-07-15 15:40:00,
2013-07-15 10:45:00,79.4,73.8,30.26,SSE,152,0.0,1.0,83,0.00,,SCT065,0.00,875.00,VWS V14.01,2013-07-15 15:45:00,
2013-07-15 10:50:00,80.4,73.7,30.26,SE,139,5.0,6.0,80,0.00,,CLR,0.00,445.00,VWS V14.01,2013-07-15 15:50:00,
2013-07-15 10:55:00,80.4,73.3,30.26,SSE,152,2.0,4.0,79,0.00,,CLR,0.00,991.00,VWS V14.01,2013-07-15 15:55:00,
2013-07-15 11:00:00,81.3,74.2,30.26,East,87,0.0,2.0,79,0.00,,CLR,0.00,661.00,VWS V14.01,2013-07-15 16:00:00,
2013-07-15 11:05:00,80.7,72.4,30.26,ESE,104,1.0,3.0,76,0.00,,CLR,0.00,380.00,VWS V14.01,2013-07-15 16:05:00,
2013-07-15 11:10:00,80.6,72.7,30.26,ESE,122,2.0,2.0,77,0.00,,CLR,0.00,492.00,VWS V14.01,2013-07-15 16:10:00,
2013-07-15 11:15:00,80.9,73.4,30.25,East,85,2.0,5.0,78,0.00,,CLR,0.00,904.00,VWS V14.01,2013-07-15 16:15:00,
2013-07-15 11:20:00,81.0,72.3,30.26,SSE,156,8.0,9.0,75,0.00,,CLR,0.00,399.00,VWS V14.01,2013-07-15 16:20:00,
2013-07-15 11:26:00,80.6,72.7,30.26,SSE,147,4.0,5.0,77,0.00,,CLR,0.00,454.00,VWS V14.01,2013-07-15 16:26:00,
2013-07-15 11:31:00,80.3,72.8,30.25,SE,134,3.0,4.0,78,0.00,,CLR,0.00,369.00,VWS V14.01,2013-07-15 16:31:00,
2013-07-15 11:36:00,80.0,72.5,30.25,SE,141,2.0,2.0,78,0.00,,CLR,0.00,316.00,VWS V14.01,2013-07-15 16:36:00,
2013-07-15 11:41:00,79.8,72.3,30.25,East,98,1.0,4.0,78,0.00,,CLR,0.00,338.00,VWS V14.01,2013-07-15 16:41:00,
2013-07-15 11:46:00,80.0,73.3,30.25,ESE,116,2.0,4.0,80,0.00,,CLR,0.00,272.00,VWS V14.01,2013-07-15 16:46:00,
2013-07-15 11:52:00,80.0,73.3,30.25,SSE,153,3.0,5.0,80,0.00,,CLR,0.00,279.00,VWS V14.01,2013-07-15 16:52:00,
2013-07-15 11:57:00,79.9,73.2,30.26,SSE,148,1.0,3.0,80,0.00,,CLR,0.00,255.00,VWS V14.01,2013-07-15 16:57:00,
2013-07-15 12:02:00,79.6,72.5,30.26,SSE,163,3.0,5.0,79,0.00,,CLR,0.00,200.00,VWS V14.01,2013-07-15 17:02:00,
2013-07-15 12:07:00,79.5,72.8,30.26,SSE,147,2.0,5.0,80,0.00,,CLR,0.00,374.00,VWS V14.01,2013-07-15 17:07:00,
2013-07-15 12:12:00,80.9,73.8,30.26,SSE,148,3.0,5.0,79,0.00,,CLR,0.00,673.00,VWS V14.01,2013-07-15 17:12:00,
2013-07-15 12:17:00,81.4,73.1,30.25,ESE,112,1.0,5.0,76,0.00,,CLR,0.00,765.00,VWS V14.01,2013-07-15 17:17:00,
2013-07-15 12:22:00,82.1,74.2,30.25,South,181,3.0,5.0,77,0.00,,CLR,0.00,383.00,VWS V14.01,2013-07-15 17:22:00,
2013-07-15 12:27:00,81.6,73.3,30.25,SE,146,2.0,3.0,76,0.00,,CLR,0.00,343.00,VWS V14.01,2013-07-15 17:27:00,
2013-07-15 12:32:00,81.1,74.0,30.25,SSE,153,3.0,3.0,79,0.00,,CLR,0.00,397.00,VWS V14.01,2013-07-15 17:32:00,
2013-07-15 12:37:00,82.4,74.9,30.25,SSE,155,4.0,7.0,78,0.00,,CLR,0.00,930.00,VWS V14.01,2013-07-15 17:37:00,
2013-07-15 12:42:00,82.9,73.8,30.25,SSE,155,2.0,6.0,74,0.00,,CLR,0.00,919.00,VWS V14.01,2013-07-15 17:42:00,
2013-07-15 12:47:00,83.7,74.9,30.24,East,99,3.0,4.0,75,0.00,,CLR,0.00,930.00,VWS V14.01,2013-07-15 17:47:00,
2013-07-15 12:52:00,84.0,74.8,30.24,SSE,165,4.0,7.0,74,0.00,,CLR,0.00,935.00,VWS V14.01,2013-07-15 17:52:00,
2013-07-15 12:57:00,84.4,74.8,30.24,SSW,200,2.0,9.0,73,0.00,,CLR,0.00,935.00,VWS V14.01,2013-07-15 17:57:00,
2013-07-15 13:02:00,84.7,75.1,30.24,South,180,5.0,8.0,73,0.00,,CLR,0.00,958.00,VWS V14.01,2013-07-15 18:02:00,
2013-07-15 13:07:00,85.4,74.9,30.24,SSW,205,6.0,9.0,71,0.00,,CLR,0.00,958.00,VWS V14.01,2013-07-15 18:07:00,
2013-07-15 13:12:00,85.7,76.1,30.24,SW,214,6.0,11.0,73,0.00,,CLR,0.00,963.00,VWS V14.01,2013-07-15 18:12:00,
2013-07-15 13:17:00,85.6,76.0,30.24,SSW,200,10.0,10.0,73,0.00,,CLR,0.00,986.00,VWS V14.01,2013-07-15 18:17:00,
2013-07-15 13:22:00,85.5,75.9,30.23,SSW,193,10.0,12.0,73,0.00,,CLR,0.00,969.00,VWS V14.01,2013-07-15 18:22:00,
2013-07-15 13:28:00,85.7,76.9,30.23,South,181,8.0,10.0,75,0.00,,CLR,0.00,954.00,VWS V14.01,2013-07-15 18:28:00,
2013-07-15 13:33:00,85.8,75.7,30.23,SW,233,6.0,10.0,72,0.00,,CLR,0.00,990.00,VWS V14.01,2013-07-15 18:33:00,
2013-07-15 13:38:00,86.0,76.3,30.23,South,170,5.0,9.0,73,0.00,,CLR,0.00,969.00,VWS V14.01,2013-07-15 18:38:00,
2013-07-15 13:43:00,86.6,76.5,30.23,SSW,205,5.0,9.0,72,0.00,,CLR,0.00,995.00,VWS V14.01,2013-07-15 18:43:00,
2013-07-15 13:48:00,87.1,76.1,30.22,South,171,5.0,12.0,70,0.00,,CLR,0.00,1060.00,VWS V14.01,2013-07-15 18:48:00,
2013-07-15 13:54:00,86.0,75.9,30.22,South,185,5.0,7.0,72,0.00,,CLR,0.00,962.00,VWS V14.01,2013-07-15 18:54:00,
2013-07-15 13:59:00,86.6,76.1,30.22,South,179,3.0,9.0,71,0.00,,CLR,0.00,935.00,VWS V14.01,2013-07-15 18:59:00,
2013-07-15 14:04:00,86.7,76.2,30.22,South,171,7.0,13.0,71,0.00,,CLR,0.00,939.00,VWS V14.01,2013-07-15 19:04:00,
2013-07-15 14:09:00,86.7,75.8,30.22,SSW,210,5.0,13.0,70,0.00,,CLR,0.00,947.00,VWS V14.01,2013-07-15 19:09:00,
2013-07-15 14:14:00,86.9,75.1,30.22,SSE,153,3.0,13.0,68,0.00,,CLR,0.00,923.00,VWS V14.01,2013-07-15 19:14:00,
2013-07-15 14:19:00,86.3,74.1,30.21,SSE,165,5.0,6.0,67,0.00,,CLR,0.00,918.00,VWS V14.01,2013-07-15 19:19:00,
2013-07-15 14:24:00,86.6,75.2,30.21,ESE,118,3.0,9.0,69,0.00,,CLR,0.00,918.00,VWS V14.01,2013-07-15 19:24:00,
2013-07-15 14:29:00,87.1,75.7,30.21,SSE,158,5.0,12.0,69,0.00,,CLR,0.00,912.00,VWS V14.01,2013-07-15 19:29:00,
2013-07-15 14:35:00,86.8,74.1,30.21,SSE,158,4.0,9.0,66,0.00,,CLR,0.00,905.00,VWS V14.01,2013-07-15 19:35:00,
2013-07-15 14:40:00,87.1,75.7,30.20,SSW,192,10.0,13.0,69,0.00,,CLR,0.00,907.00,VWS V14.01,2013-07-15 19:40:00,
2013-07-15 14:45:00,87.7,75.4,30.20,SSW,200,11.0,12.0,67,0.00,,CLR,0.00,912.00,VWS V14.01,2013-07-15 19:45:00,
2013-07-15 14:50:00,87.8,75.9,30.20,SSE,153,6.0,10.0,68,0.00,,SCT035,0.00,904.00,VWS V14.01,2013-07-15 19:50:00,
2013-07-15 14:55:00,87.4,74.2,30.19,SSW,195,6.0,12.0,65,0.00,,SCT035,0.00,900.00,VWS V14.01,2013-07-15 19:55:00,
2013-07-15 15:00:00,87.1,73.0,30.19,SE,133,3.0,5.0,63,0.00,,SCT035,0.00,861.00,VWS V14.01,2013-07-15 20:00:00,
2013-07-15 15:05:00,87.8,75.0,30.19,SSE,152,5.0,11.0,66,0.00,,SCT035,0.00,875.00,VWS V14.01,2013-07-15 20:05:00,
2013-07-15 15:10:00,88.2,76.3,30.19,SSW,196,7.0,9.0,68,0.00,,SCT035,0.00,874.00,VWS V14.01,2013-07-15 20:10:00,
2013-07-15 15:16:00,88.5,74.8,30.19,SSW,197,7.0,12.0,64,0.00,,SCT035,0.00,904.00,VWS V14.01,2013-07-15 20:16:00,
2013-07-15 15:21:00,88.5,74.8,30.19,SSE,158,5.0,11.0,64,0.00,,SCT035,0.00,870.00,VWS V14.01,2013-07-15 20:21:00,
2013-07-15 15:26:00,88.4,74.7,30.19,SSW,195,11.0,12.0,64,0.00,,SCT035,0.00,840.00,VWS V14.01,2013-07-15 20:26:00,
2013-07-15 15:31:00,88.5,76.6,30.19,SSW,198,7.0,10.0,68,0.00,,SCT035,0.00,868.00,VWS V14.01,2013-07-15 20:31:00,
2013-07-15 15:36:00,88.4,76.5,30.19,South,172,3.0,9.0,68,0.00,,SCT035,0.00,830.00,VWS V14.01,2013-07-15 20:36:00,
2013-07-15 15:41:00,88.5,76.6,30.19,East,88,3.0,7.0,68,0.00,,SCT035,0.00,817.00,VWS V14.01,2013-07-15 20:41:00,
2013-07-15 15:46:00,88.0,75.2,30.19,SSE,151,4.0,7.0,66,0.00,,SCT035,0.00,814.00,VWS V14.01,2013-07-15 20:46:00,
2013-07-15 15:51:00,88.0,74.8,30.19,South,172,5.0,9.0,65,0.00,,SCT036,0.00,823.00,VWS V14.01,2013-07-15 20:51:00,
2013-07-15 15:56:00,87.8,74.6,30.19,SSE,164,3.0,6.0,65,0.00,,SCT036,0.00,807.00,VWS V14.01,2013-07-15 20:56:00,
2013-07-15 16:02:00,88.1,76.2,30.19,South,174,9.0,9.0,68,0.00,,SCT036,0.00,849.00,VWS V14.01,2013-07-15 21:02:00,
2013-07-15 16:07:00,88.7,76.8,30.18,SE,131,5.0,5.0,68,0.00,,SCT036,0.00,795.00,VWS V14.01,2013-07-15 21:07:00,
2013-07-15 16:12:00,88.3,75.5,30.18,East,99,4.0,6.0,66,0.00,,SCT036,0.00,752.00,VWS V14.01,2013-07-15 21:12:00,
2013-07-15 16:17:00,88.1,74.9,30.18,SE,137,3.0,5.0,65,0.00,,SCT036,0.00,798.00,VWS V14.01,2013-07-15 21:17:00,
2013-07-15 16:22:00,88.2,75.4,30.18,SE,141,4.0,4.0,66,0.00,,SCT036,0.00,853.00,VWS V14.01,2013-07-15 21:22:00,
2013-07-15 16:27:00,87.6,74.8,30.18,ESE,112,4.0,7.0,66,0.00,,SCT036,0.00,831.00,VWS V14.01,2013-07-15 21:27:00,
2013-07-15 16:32:00,87.2,75.4,30.18,SE,134,4.0,6.0,68,0.00,,SCT036,0.00,687.00,VWS V14.01,2013-07-15 21:32:00,
2013-07-15 16:37:00,87.5,75.2,30.18,ESE,123,5.0,7.0,67,0.00,,SCT036,0.00,668.00,VWS V14.01,2013-07-15 21:37:00,
2013-07-15 16:42:00,87.0,74.7,30.18,ESE,106,6.0,6.0,67,0.00,,SCT036,0.00,197.00,VWS V14.01,2013-07-15 21:42:00,
2013-07-15 16:47:00,85.9,74.1,30.18,ESE,120,0.0,5.0,68,0.00,,SCT036,0.00,132.00,VWS V14.01,2013-07-15 21:47:00,
2013-07-15 16:53:00,87.0,75.6,30.18,SE,136,3.0,4.0,69,0.00,,CLR,0.00,687.00,VWS V14.01,2013-07-15 21:53:00,
2013-07-15 16:58:00,87.5,74.8,30.18,ENE,75,3.0,4.0,66,0.00,,CLR,0.00,668.00,VWS V14.01,2013-07-15 21:58:00,
2013-07-15 17:03:00,87.9,75.6,30.18,East,85,3.0,4.0,67,0.00,,CLR,0.00,661.00,VWS V14.01,2013-07-15 22:03:00,
2013-07-15 17:08:00,87.9,75.6,30.18,SE,129,3.0,4.0,67,0.00,,CLR,0.00,582.00,VWS V14.01,2013-07-15 22:08:00,
2013-07-15 17:13:00,87.1,73.9,30.18,ENE,73,6.0,7.0,65,0.00,,CLR,0.00,146.00,VWS V14.01,2013-07-15 22:13:00,
2013-07-15 17:18:00,85.6,73.8,30.17,SE,135,4.0,7.0,68,0.00,,CLR,0.00,190.00,VWS V14.01,2013-07-15 22:18:00,
2013-07-15 17:23:00,85.6,73.4,30.17,SSE,150,3.0,5.0,67,0.00,,CLR,0.00,643.00,VWS V14.01,2013-07-15 22:23:00,
2013-07-15 17:28:00,85.5,73.7,30.17,East,95,4.0,6.0,68,0.00,,CLR,0.00,185.00,VWS V14.01,2013-07-15 22:28:00,
2013-07-15 17:33:00,85.6,73.8,30.17,South,170,1.0,3.0,68,0.00,,CLR,0.00,248.00,VWS V14.01,2013-07-15 22:33:00,
2013-07-15 17:38:00,85.5,73.7,30.17,ESE,112,3.0,4.0,68,0.00,,CLR,0.00,202.00,VWS V14.01,2013-07-15 22:38:00,
2013-07-15 17:43:00,85.3,73.1,30.17,East,100,2.0,5.0,67,0.00,,CLR,0.00,200.00,VWS V14.01,2013-07-15 22:43:00,
2013-07-15 17:48:00,84.9,72.7,30.17,SSE,158,3.0,6.0,67,0.00,,CLR,0.00,176.00,VWS V14.01,2013-07-15 22:48:00,
2013-07-15 17:54:00,85.0,72.4,30.17,SSE,163,2.0,5.0,66,0.00,,CLR,0.00,135.00,VWS V14.01,2013-07-15 22:54:00,
2013-07-15 17:59:00,84.3,72.6,30.17,SE,133,0.0,2.0,68,0.00,,CLR,0.00,100.00,VWS V14.01,2013-07-15 22:59:00,
2013-07-15 18:04:00,83.9,73.1,30.17,SE,133,0.0,2.0,70,0.00,,CLR,0.00,104.00,VWS V14.01,2013-07-15 23:04:00,
2013-07-15 18:09:00,83.8,72.6,30.17,SSE,161,1.0,3.0,69,0.00,,CLR,0.00,100.00,VWS V14.01,2013-07-15 23:09:00,
2013-07-15 18:14:00,84.3,73.9,30.17,SSE,161,0.0,1.0,71,0.00,,CLR,0.00,369.00,VWS V14.01,2013-07-15 23:14:00,
2013-07-15 18:19:00,85.1,73.4,30.17,SSE,161,2.0,2.0,68,0.00,,CLR,0.00,304.00,VWS V14.01,2013-07-15 23:19:00,
2013-07-15 18:24:00,85.7,73.9,30.16,East,100,3.0,3.0,68,0.00,,CLR,0.00,309.00,VWS V14.01,2013-07-15 23:24:00,
2013-07-15 18:29:00,86.0,74.2,30.16,ESE,105,0.0,3.0,68,0.00,,CLR,0.00,315.00,VWS V14.01,2013-07-15 23:29:00,
2013-07-15 18:34:00,85.4,73.2,30.17,SSE,165,3.0,4.0,67,0.00,,CLR,0.00,265.00,VWS V14.01,2013-07-15 23:34:00,
2013-07-15 18:39:00,85.1,73.4,30.17,SSE,153,1.0,3.0,68,0.00,,CLR,0.00,104.00,VWS V14.01,2013-07-15 23:39:00,
2013-07-15 18:44:00,84.8,73.9,30.17,East,85,0.0,1.0,70,0.00,,CLR,0.00,98.00,VWS V14.01,2013-07-15 23:44:00,
2013-07-15 18:49:00,84.6,73.3,30.17,SSE,158,4.0,5.0,69,0.00,,CLR,0.00,148.00,VWS V14.01,2013-07-15 23:49:00,
2013-07-15 18:54:00,84.6,73.7,30.17,SSE,151,1.0,2.0,70,0.00,,CLR,0.00,149.00,VWS V14.01,2013-07-15 23:54:00,
2013-07-15 18:59:00,84.7,73.8,30.17,SSE,151,0.0,3.0,70,0.00,,CLR,0.00,142.00,VWS V14.01,2013-07-15 23:59:00,
2013-07-15 19:04:00,84.5,74.1,30.17,SSE,147,2.0,5.0,71,0.00,,CLR,0.00,58.00,VWS V14.01,2013-07-16 00:04:00,
2013-07-15 19:10:00,84.5,74.1,30.17,SE,142,2.0,3.0,71,0.00,,CLR,0.00,51.00,VWS V14.01,2013-07-16 00:10:00,
2013-07-15 19:15:00,84.5,74.1,30.17,SE,141,3.0,5.0,71,0.00,,CLR,0.00,47.00,VWS V14.01,2013-07-16 00:15:00,
2013-07-15 19:20:00,84.5,74.5,30.17,SE,135,0.0,4.0,72,0.00,,CLR,0.00,46.00,VWS V14.01,2013-07-16 00:20:00,
2013-07-15 19:25:00,84.2,74.6,30.17,South,179,0.0,2.0,73,0.00,,CLR,0.00,42.00,VWS V14.01,2013-07-16 00:25:00,
2013-07-15 19:30:00,84.1,74.1,30.17,SSE,152,1.0,3.0,72,0.00,,CLR,0.00,40.00,VWS V14.01,2013-07-16 00:30:00,
2013-07-15 19:35:00,84.2,74.2,30.17,SSE,155,1.0,2.0,72,0.00,,CLR,0.00,37.00,VWS V14.01,2013-07-16 00:35:00,
2013-07-15 19:40:00,84.1,74.9,30.17,SSE,155,1.0,1.0,74,0.00,,CLR,0.00,33.00,VWS V14.01,2013-07-16 00:40:00,
2013-07-15 19:45:00,83.8,74.6,30.17,ESE,106,2.0,3.0,74,0.00,,CLR,0.00,32.00,VWS V14.01,2013-07-16 00:45:00,
2013-07-15 19:50:00,83.3,74.6,30.17,ESE,115,0.0,1.0,75,0.00,,CLR,0.00,32.00,VWS V14.01,2013-07-16 00:50:00,
2013-07-15 19:55:00,83.2,74.5,30.17,SE,142,2.0,3.0,75,0.00,,CLR,0.00,30.00,VWS V14.01,2013-07-16 00:55:00,
2013-07-15 20:00:00,83.2,74.5,30.17,SE,143,1.0,1.0,75,0.00,,CLR,0.00,28.00,VWS V14.01,2013-07-16 01:00:00,
2013-07-15 20:05:00,83.3,74.2,30.17,SE,143,0.0,1.0,74,0.00,,CLR,0.00,30.00,VWS V14.01,2013-07-16 01:05:00,
2013-07-15 20:11:00,83.2,74.1,30.17,SE,143,0.0,0.0,74,0.00,,CLR,0.00,30.00,VWS V14.01,2013-07-16 01:11:00,
2013-07-15 20:16:00,83.1,74.4,30.17,SE,143,0.0,0.0,75,0.00,,CLR,0.00,25.00,VWS V14.01,2013-07-16 01:16:00,
2013-07-15 20:21:00,83.0,74.3,30.17,SE,143,0.0,0.0,75,0.00,,CLR,0.00,18.00,VWS V14.01,2013-07-16 01:21:00,
2013-07-15 20:26:00,82.5,73.8,30.17,SE,143,0.0,0.0,75,0.00,,CLR,0.00,14.00,VWS V14.01,2013-07-16 01:26:00,
2013-07-15 20:31:00,82.3,73.6,30.17,SE,143,0.0,1.0,75,0.00,,CLR,0.00,11.00,VWS V14.01,2013-07-16 01:31:00,
2013-07-15 20:36:00,81.9,73.6,30.17,SE,143,1.0,1.0,76,0.00,,CLR,0.00,7.00,VWS V14.01,2013-07-16 01:36:00,
2013-07-15 20:41:00,81.5,73.2,30.17,SE,143,0.0,1.0,76,0.00,,CLR,0.00,5.00,VWS V14.01,2013-07-16 01:41:00,
2013-07-15 20:46:00,81.2,73.3,30.17,SE,143,0.0,1.0,77,0.00,,CLR,0.00,0.00,VWS V14.01,2013-07-16 01:46:00,
2013-07-15 20:52:00,80.8,72.9,30.17,SE,143,0.0,1.0,77,0.00,,CLR,0.00,0.00,VWS V14.01,2013-07-16 01:52:00,
2013-07-15 20:57:00,80.5,73.0,30.17,SE,143,1.0,1.0,78,0.00,,CLR,0.00,0.00,VWS V14.01,2013-07-16 01:57:00,
2013-07-15 21:02:00,80.4,72.9,30.17,ESE,120,0.0,2.0,78,0.00,,CLR,0.00,0.00,VWS V14.01,2013-07-16 02:02:00,
2013-07-15 21:08:00,80.3,72.8,30.17,SE,138,1.0,1.0,78,0.00,,CLR,0.00,0.00,VWS V14.01,2013-07-16 02:08:00,
2013-07-15 21:13:00,80.2,72.7,30.18,SSE,153,3.0,3.0,78,0.00,,CLR,0.00,0.00,VWS V14.01,2013-07-16 02:13:00,
2013-07-15 21:18:00,80.2,72.7,30.18,SE,139,0.0,2.0,78,0.00,,CLR,0.00,0.00,VWS V14.01,2013-07-16 02:18:00,
2013-07-15 21:23:00,80.4,72.9,30.19,ESE,114,0.0,3.0,78,0.00,,CLR,0.00,0.00,VWS V14.01,2013-07-16 02:23:00,
2013-07-15 21:28:00,80.7,72.8,30.19,ESE,120,1.0,2.0,77,0.00,,CLR,0.00,0.00,VWS V14.01,2013-07-16 02:28:00,
2013-07-15 21:33:00,80.6,72.7,30.19,SSE,149,2.0,3.0,77,0.00,,CLR,0.00,0.00,VWS V14.01,2013-07-16 02:33:00,
2013-07-15 21:39:00,80.3,72.8,30.19,SSE,158,0.0,3.0,78,0.00,,CLR,0.00,0.00,VWS V14.01,2013-07-16 02:39:00,
2013-07-15 21:44:00,80.3,72.8,30.19,SE,141,0.0,2.0,78,0.00,,CLR,0.00,0.00,VWS V14.01,2013-07-16 02:44:00,
2013-07-15 21:49:00,80.2,72.7,30.20,SE,135,2.0,2.0,78,0.00,,CLR,0.00,0.00,VWS V14.01,2013-07-16 02:49:00,
2013-07-15 21:54:00,80.0,72.5,30.20,SE,146,1.0,2.0,78,0.00,,CLR,0.00,0.00,VWS V14.01,2013-07-16 02:54:00,
2013-07-15 21:59:00,80.0,72.9,30.20,SSE,149,2.0,6.0,79,0.00,,CLR,0.00,0.00,VWS V14.01,2013-07-16 02:59:00,
2013-07-15 22:04:00,79.6,72.5,30.21,SSE,156,1.0,3.0,79,0.00,,CLR,0.00,0.00,VWS V14.01,2013-07-16 03:04:00,
2013-07-15 22:10:00,79.4,72.7,30.21,South,180,2.0,5.0,80,0.00,,CLR,0.00,0.00,VWS V14.01,2013-07-16 03:10:00,
2013-07-15 22:15:00,79.2,72.9,30.21,SSE,168,2.0,3.0,81,0.00,,CLR,0.00,0.00,VWS V14.01,2013-07-16 03:15:00,
2013-07-15 22:20:00,78.9,72.6,30.22,SSE,165,3.0,4.0,81,0.00,,CLR,0.00,0.00,VWS V14.01,2013-07-16 03:20:00,
2013-07-15 22:25:00,79.1,72.8,30.22,SSE,168,2.0,3.0,81,0.00,,CLR,0.00,0.00,VWS V14.01,2013-07-16 03:25:00,
2013-07-15 22:30:00,79.1,72.8,30.22,SSE,154,2.0,4.0,81,0.00,,CLR,0.00,0.00,VWS V14.01,2013-07-16 03:30:00,
2013-07-15 22:35:00,79.0,72.7,30.22,SSE,149,1.0,4.0,81,0.00,,CLR,0.00,0.00,VWS V14.01,2013-07-16 03:35:00,
2013-07-15 22:40:00,78.9,72.9,30.22,SSE,158,1.0,3.0,82,0.00,,CLR,0.00,0.00,VWS V14.01,2013-07-16 03:40:00,
2013-07-15 22:45:00,78.7,72.8,30.22,SSE,158,1.0,2.0,82,0.00,,CLR,0.00,0.00,VWS V14.01,2013-07-16 03:45:00,
2013-07-15 22:50:00,78.6,73.0,30.22,SSE,158,0.0,1.0,83,0.00,,SCT065,0.00,0.00,VWS V14.01,2013-07-16 03:50:00,
2013-07-15 22:55:00,78.5,72.9,30.22,SSE,158,0.0,1.0,83,0.00,,SCT065,0.00,0.00,VWS V14.01,2013-07-16 03:55:00,
2013-07-15 23:00:00,78.3,72.7,30.22,SSE,158,0.0,1.0,83,0.00,,SCT065,0.00,0.00,VWS V14.01,2013-07-16 04:00:00,
2013-07-15 23:01:00,78.3,72.7,30.22,SSE,158,0.0,1.0,83,0.00,,SCT065,0.00,0.00,VWS V14.01,2013-07-16 04:01:00,
2013-07-15 23:06:00,78.2,72.6,30.22,SSE,158,1.0,1.0,83,0.00,,SCT065,0.00,0.00,VWS V14.01,2013-07-16 04:06:00,
2013-07-15 23:11:00,77.9,72.7,30.22,SSE,158,0.0,2.0,84,0.00,,SCT065,0.00,0.00,VWS V14.01,2013-07-16 04:11:00,
2013-07-15 23:16:00,77.6,72.4,30.22,SE,134,0.0,1.0,84,0.00,,SCT065,0.00,0.00,VWS V14.01,2013-07-16 04:16:00,
2013-07-15 23:21:00,77.3,72.4,30.22,SE,124,0.0,1.0,85,0.00,,SCT065,0.00,0.00,VWS V14.01,2013-07-16 04:21:00,
2013-07-15 23:26:00,77.2,72.3,30.22,SE,146,2.0,2.0,85,0.00,,SCT065,0.00,0.00,VWS V14.01,2013-07-16 04:26:00,
2013-07-15 23:31:00,77.3,72.4,30.22,ESE,117,0.0,1.0,85,0.00,,SCT065,0.00,0.00,VWS V14.01,2013-07-16 04:31:00,
2013-07-15 23:36:00,77.3,72.4,30.22,ESE,117,0.0,0.0,85,0.00,,SCT065,0.00,0.00,VWS V14.01,2013-07-16 04:36:00,
2013-07-15 23:41:00,77.1,72.2,30.22,ESE,117,0.0,1.0,85,0.00,,SCT065,0.00,0.00,VWS V14.01,2013-07-16 04:41:00,
2013-07-15 23:46:00,77.1,72.2,30.22,ESE,123,0.0,1.0,85,0.00,,SCT065,0.00,0.00,VWS V14.01,2013-07-16 04:46:00,
2013-07-15 23:51:00,77.0,72.2,30.22,ESE,122,0.0,1.0,85,0.00,,SCT065,0.00,0.00,VWS V14.01,2013-07-16 04:51:00,
2013-07-15 23:56:00,76.7,72.2,30.22,ESE,122,0.0,2.0,86,0.00,,SCT065,0.00,0.00,VWS V14.01,2013-07-16 04:56:00,